| time (UTC) | temp C | wind direction | speed KPH | gust KPH | rain 1hr cm | rain 24hr cm | rain mn cm | humidity % | barometer mb |
| 20260503184609 | 17 | 208 | 4.8 | 19.3 | 0.00 | 0.00 | 0.00 | 36 | 1016.6 |
| 20260503183049 | 16 | 119 | 3.2 | 22.5 | 0.00 | 0.00 | 0.00 | 37 | 1016.8 |
| 20260503181547 | 17 | 192 | 1.6 | 24.1 | 0.00 | 0.00 | 0.00 | 35 | 1016.9 |
| 20260503180045 | 16 | 241 | 8.0 | 22.5 | 0.00 | 0.00 | 0.00 | 37 | 1017.2 |
| 20260503174553 | 16 | 229 | 0.0 | 17.7 | 0.00 | 0.00 | 0.00 | 38 | 1017.4 |
| 20260503173041 | 16 | 252 | 3.2 | 16.1 | 0.00 | 0.00 | 0.00 | 37 | 1017.5 |
| 20260503171540 | 16 | 210 | 1.6 | 25.7 | 0.00 | 0.00 | 0.00 | 40 | 1018.1 |
| 20260503081534 | 2 | 244 | 0.0 | 0.0 | 0.00 | 0.00 | 0.00 | 78 | 1018.2 |
| 20260503071522 | 3 | 245 | 0.0 | 0.0 | 0.00 | 0.00 | 0.00 | 76 | 1018.0 |
| 20260503054517 | 3 | 275 | 0.0 | 0.0 | 0.00 | 0.00 | 0.00 | 73 | 1018.4 |
| 20260503053006 | 4 | 274 | 0.0 | 0.0 | 0.00 | 0.00 | 0.00 | 72 | 1018.4 |
| 20260503051505 | 4 | 275 | 0.0 | 0.0 | 0.00 | 0.00 | 0.00 | 71 | 1018.4 |
| 20260503050005 | 4 | 275 | 0.0 | 0.0 | 0.00 | 0.00 | 0.00 | 72 | 1018.4 |
| 20260503044504 | 4 | 274 | 0.0 | 0.0 | 0.00 | 0.00 | 0.00 | 73 | 1018.4 |
| 20260503043002 | 4 | 275 | 0.0 | 0.0 | 0.00 | 0.00 | 0.00 | 72 | 1018.5 |
| 20260503041558 | 4 | 8 | 0.0 | 0.0 | 0.00 | 0.00 | 0.00 | 72 | 1018.4 |
| 20260503040056 | 4 | 8 | 0.0 | 0.0 | 0.00 | 0.00 | 0.00 | 72 | 1018.5 |
| 20260503034556 | 5 | 8 | 0.0 | 0.0 | 0.00 | 0.00 | 0.00 | 71 | 1018.6 |
| 20260503033059 | 5 | 8 | 0.0 | 0.0 | 0.00 | 0.00 | 0.00 | 70 | 1018.5 |
| 20260503031551 | 5 | 8 | 0.0 | 0.0 | 0.00 | 0.00 | 0.00 | 67 | 1018.5 |
| 20260503030051 | 6 | 8 | 0.0 | 0.0 | 0.00 | 0.00 | 0.00 | 64 | 1018.6 |
| 20260503024552 | 6 | 8 | 0.0 | 0.0 | 0.00 | 0.00 | 0.00 | 63 | 1018.5 |
| 20260503023050 | 6 | 4 | 0.0 | 0.0 | 0.00 | 0.00 | 0.00 | 62 | 1018.4 |
| 20260503021552 | 6 | 4 | 0.0 | 0.0 | 0.00 | 0.00 | 0.00 | 60 | 1018.3 |
| 20260503020048 | 7 | 311 | 0.0 | 0.0 | 0.00 | 0.00 | 0.00 | 59 | 1018.2 |
| 20260503014601 | 7 | 276 | 0.0 | 0.0 | 0.00 | 0.00 | 0.00 | 57 | 1018.0 |
| 20260503013047 | 7 | 354 | 0.0 | 0.0 | 0.00 | 0.00 | 0.00 | 56 | 1017.8 |
| 20260503011643 | 7 | 32 | 0.0 | 0.0 | 0.00 | 0.00 | 0.00 | 56 | 1017.6 |
| 20260503010044 | 8 | 37 | 0.0 | 0.0 | 0.00 | 0.00 | 0.00 | 53 | 1017.5 |
| 20260503004544 | 8 | 293 | 0.0 | 6.4 | 0.00 | 0.00 | 0.00 | 51 | 1017.4 |
| 20260503003044 | 8 | 285 | 0.0 | 3.2 | 0.00 | 0.00 | 0.00 | 49 | 1017.2 |
| 20260503001542 | 8 | 287 | 0.0 | 6.4 | 0.00 | 0.00 | 0.00 | 48 | 1017.0 |
| 20260503000041 | 9 | 304 | 0.0 | 4.8 | 0.00 | 0.00 | 0.00 | 49 | 1016.8 |
| 20260502234603 | 10 | 293 | 0.0 | 6.4 | 0.00 | 0.00 | 0.00 | 48 | 1016.7 |
| 20260502233042 | 10 | 303 | 0.0 | 8.0 | 0.00 | 0.00 | 0.00 | 46 | 1016.7 |
| 20260502231540 | 10 | 355 | 0.0 | 8.0 | 0.00 | 0.00 | 0.00 | 46 | 1016.5 |
| 20260502230040 | 10 | 288 | 0.0 | 9.7 | 0.00 | 0.00 | 0.00 | 43 | 1016.4 |
| 20260502224539 | 10 | 295 | 0.0 | 0.0 | 0.00 | 0.00 | 0.00 | 46 | 1016.5 |
| 20260502223046 | 10 | 295 | 1.6 | 12.9 | 0.00 | 0.00 | 0.00 | 45 | 1016.5 |
| 20260502221538 | 10 | 284 | 1.6 | 12.9 | 0.00 | 0.00 | 0.00 | 43 | 1016.4 |
| 20260502220038 | 11 | 49 | 3.2 | 19.3 | 0.00 | 0.00 | 0.00 | 43 | 1016.3 |
| 20260502214538 | 11 | 8 | 0.0 | 4.8 | 0.00 | 0.00 | 0.00 | 41 | 1016.2 |
| 20260502213044 | 11 | 297 | 1.6 | 9.7 | 0.00 | 0.00 | 0.00 | 41 | 1016.1 |
| 20260502211538 | 12 | 342 | 3.2 | 8.0 | 0.00 | 0.00 | 0.00 | 40 | 1016.0 |
| 20260502210034 | 12 | 280 | 4.8 | 9.7 | 0.00 | 0.00 | 0.00 | 41 | 1016.1 |
| 20260502204533 | 11 | 265 | 6.4 | 16.1 | 0.00 | 0.00 | 0.00 | 43 | 1016.0 |
| 20260502203036 | 12 | 160 | 0.0 | 6.4 | 0.00 | 0.00 | 0.00 | 42 | 1016.1 |
| 20260502201537 | 11 | 278 | 0.0 | 9.7 | 0.00 | 0.00 | 0.00 | 43 | 1016.2 |
| 20260502200030 | 11 | 317 | 0.0 | 14.5 | 0.00 | 0.00 | 0.00 | 44 | 1016.3 |
| 20260502194529 | 11 | 302 | 0.0 | 4.8 | 0.00 | 0.00 | 0.00 | 42 | 1016.4 |
| 20260502193028 | 11 | 257 | 0.0 | 3.2 | 0.00 | 0.00 | 0.00 | 44 | 1016.3 |
| 20260502191529 | 11 | 281 | 0.0 | 4.8 | 0.00 | 0.00 | 0.00 | 45 | 1016.5 |
| 20260502190025 | 11 | 54 | 1.6 | 9.7 | 0.00 | 0.00 | 0.00 | 44 | 1016.7 |